Total_Precipitation_Accumulation
0.10 0.16 0.19 0.23 0.19 0.14 0.11 0.16 0.27 0.23 0.22 0.26 0.26 0.23 0.26 0.26 0.22 0.18 0.17 0.15 0.16 0.18 0.22 0.26 0.25 0.22 0.20 0.18 0.18 0.24 0.28 0.35 0.45 0.40 0.34 0.31 0.28 0.22 0.20 0.24 0.30 0.43 0.52 0.57
0.06 0.10 0.13 0.16 0.19 0.13 0.09 0.08 0.11 0.17 0.24 0.26 0.26 0.24 0.22 0.19 0.17 0.16 0.16 0.14 0.13 0.15 0.17 0.19 0.16 0.11 0.08 0.09 0.12 0.19 0.25 0.30 0.37 0.36 0.29 0.23 0.20 0.15 0.15 0.21 0.28 0.37 0.40 0.45
0.10 0.09 0.13 0.18 0.15 0.11 0.07 0.05 0.06 0.18 0.30 0.23 0.23 0.22 0.19 0.17 0.15 0.12 0.10 0.08 0.08 0.07 0.06 0.05 0.05 0.05 0.05 0.06 0.08 0.16 0.26 0.33 0.38 0.42 0.42 0.31 0.19 0.16 0.19 0.26 0.34 0.39 0.38 0.38
0.15 0.20 0.31 0.19 0.10 0.09 0.09 0.06 0.07 0.11 0.15 0.13 0.14 0.10 0.07 0.07 0.08 0.05 0.04 0.04 0.04 0.03 0.02 0.03 0.03 0.05 0.08 0.07 0.09 0.15 0.25 0.31 0.34 0.39 0.40 0.37 0.32 0.31 0.34 0.42 0.48 0.51 0.44 0.41
0.21 0.26 0.22 0.16 0.13 0.12 0.13 0.11 0.09 0.11 0.08 0.07 0.08 0.07 0.08 0.05 0.08 0.06 0.05 0.05 0.04 0.04 0.04 0.05 0.05 0.08 0.13 0.14 0.17 0.22 0.31 0.41 0.41 0.44 0.44 0.40 0.39 0.42 0.47 0.52 0.53 0.54 0.48 0.45
0.31 0.35 0.32 0.24 0.22 0.19 0.18 0.25 0.14 0.12 0.09 0.06 0.06 0.14 0.15 0.07 0.05 0.05 0.06 0.09 0.08 0.06 0.07 0.09 0.10 0.13 0.19 0.25 0.31 0.39 0.48 0.54 0.53 0.57 0.61 0.56 0.57 0.58 0.57 0.60 0.55 0.52 0.50 0.53
0.38 0.41 0.35 0.29 0.29 0.23 0.37 0.44 0.18 0.13 0.10 0.08 0.09 0.11 0.09 0.07 0.04 0.04 0.05 0.06 0.07 0.10 0.09 0.11 0.13 0.18 0.29 0.35 0.39 0.43 0.45 0.53 0.59 0.66 0.74 0.78 0.82 0.78 0.74 0.70 0.67 0.61 0.57 0.58
0.54 0.59 0.48 0.29 0.30 0.41 0.47 0.33 0.23 0.17 0.12 0.09 0.09 0.08 0.06 0.05 0.04 0.04 0.04 0.06 0.09 0.11 0.10 0.13 0.16 0.24 0.33 0.37 0.39 0.42 0.47 0.56 0.63 0.70 0.70 0.79 1.03 1.03 1.03 0.98 0.85 0.78 0.74 0.66
0.51 0.51 0.37 0.31 0.37 0.41 0.39 0.36 0.27 0.21 0.13 0.09 0.08 0.07 0.07 0.07 0.07 0.06 0.06 0.07 0.10 0.13 0.15 0.18 0.22 0.34 0.47 0.44 0.44 0.49 0.55 0.63 0.68 0.68 0.76 0.89 1.03 1.08 1.12 1.09 0.95 0.86 0.85 0.81
0.46 0.45 0.44 0.35 0.31 0.34 0.28 0.21 0.18 0.15 0.13 0.11 0.11 0.11 0.11 0.11 0.11 0.10 0.10 0.11 0.14 0.19 0.25 0.33 0.38 0.46 0.58 0.55 0.57 0.63 0.65 0.67 0.70 0.75 0.78 0.86 1.02 1.03 1.03 1.00 0.98 0.94 0.92 0.88
0.52 0.47 0.47 0.41 0.37 0.36 0.26 0.20 0.15 0.12 0.12 0.13 0.13 0.12 0.12 0.12 0.15 0.15 0.15 0.15 0.19 0.28 0.37 0.46 0.54 0.60 0.65 0.68 0.74 0.79 0.76 0.73 0.77 0.82 0.87 0.93 0.98 1.03 0.98 0.93 0.83 0.86 0.87 0.85
0.53 0.51 0.61 0.55 0.37 0.29 0.23 0.19 0.14 0.13 0.12 0.12 0.13 0.13 0.13 0.13 0.13 0.15 0.18 0.19 0.22 0.29 0.38 0.48 0.57 0.66 0.72 0.83 0.94 1.01 1.00 0.89 0.89 0.91 0.95 1.01 1.00 0.90 0.75 0.67 0.53 0.51 0.56 0.60
0.40 0.43 0.49 0.39 0.29 0.28 0.25 0.23 0.16 0.14 0.13 0.12 0.11 0.12 0.13 0.15 0.14 0.15 0.16 0.20 0.26 0.32 0.40 0.45 0.52 0.63 0.74 0.88 0.96 1.02 1.05 1.03 0.98 1.00 1.04 1.04 1.05 1.00 0.90 0.73 0.58 0.50 0.45 0.48
0.29 0.31 0.32 0.25 0.26 0.27 0.24 0.21 0.16 0.14 0.13 0.11 0.12 0.13 0.14 0.15 0.15 0.16 0.19 0.22 0.26 0.34 0.43 0.48 0.55 0.61 0.72 0.86 0.96 0.99 0.99 0.98 0.98 1.03 1.05 1.01 0.98 0.99 1.03 0.97 0.87 0.75 0.57 0.52
0.29 0.31 0.35 0.32 0.28 0.26 0.24 0.20 0.18 0.16 0.15 0.13 0.12 0.12 0.14 0.17 0.18 0.18 0.19 0.22 0.28 0.33 0.39 0.49 0.61 0.67 0.75 0.84 0.90 0.95 0.98 0.98 0.99 0.99 1.00 1.02 0.99 0.96 0.98 1.02 1.00 0.89 0.74 0.66
0.40 0.40 0.41 0.34 0.26 0.21 0.20 0.21 0.22 0.22 0.20 0.19 0.17 0.15 0.15 0.16 0.19 0.20 0.21 0.27 0.36 0.44 0.52 0.62 0.66 0.72 0.87 0.97 1.01 1.04 1.07 1.07 1.11 1.07 0.96 0.93 0.96 0.99 0.99 1.03 1.04 0.94 0.82 0.70
0.50 0.52 0.48 0.38 0.29 0.26 0.27 0.29 0.30 0.28 0.25 0.23 0.22 0.21 0.20 0.20 0.21 0.21 0.23 0.27 0.34 0.41 0.52 0.66 0.67 0.70 0.85 1.00 1.10 1.12 1.05 0.98 0.99 0.99 0.91 0.82 0.85 0.91 0.92 0.93 0.89 0.81 0.71 0.58
0.49 0.48 0.44 0.41 0.39 0.35 0.33 0.33 0.31 0.28 0.27 0.26 0.24 0.25 0.27 0.30 0.31 0.31 0.31 0.33 0.38 0.40 0.43 0.50 0.60 0.68 0.79 0.91 1.02 1.06 1.05 1.00 0.94 0.92 0.89 0.81 0.76 0.80 0.83 0.82 0.72 0.66 0.60 0.51
0.37 0.34 0.33 0.32 0.33 0.34 0.34 0.35 0.34 0.33 0.32 0.32 0.32 0.33 0.33 0.33 0.35 0.37 0.38 0.44 0.56 0.62 0.56 0.54 0.63 0.65 0.73 0.86 0.97 0.97 1.00 1.03 0.96 0.81 0.79 0.79 0.73 0.75 0.69 0.65 0.60 0.57 0.52 0.48
0.34 0.34 0.33 0.36 0.40 0.45 0.46 0.44 0.44 0.44 0.42 0.41 0.42 0.43 0.42 0.40 0.42 0.46 0.50 0.54 0.64 0.74 0.72 0.67 0.62 0.58 0.66 0.81 0.92 0.87 0.84 0.89 0.87 0.75 0.74 0.78 0.72 0.67 0.56 0.53 0.51 0.51 0.51 0.49
0.37 0.40 0.42 0.44 0.45 0.47 0.48 0.48 0.49 0.48 0.44 0.43 0.44 0.46 0.46 0.44 0.44 0.52 0.67 0.71 0.64 0.69 0.70 0.67 0.61 0.59 0.61 0.78 0.84 0.83 0.79 0.77 0.78 0.72 0.68 0.68 0.67 0.61 0.52 0.51 0.51 0.48 0.45 0.43
0.35 0.38 0.41 0.40 0.38 0.36 0.33 0.34 0.35 0.35 0.34 0.34 0.36 0.39 0.45 0.47 0.46 0.51 0.59 0.70 0.72 0.75 0.68 0.65 0.63 0.60 0.59 0.68 0.74 0.81 0.84 0.76 0.72 0.65 0.62 0.58 0.60 0.57 0.49 0.46 0.43 0.38 0.37 0.39
0.22 0.22 0.23 0.23 0.23 0.22 0.19 0.19 0.23 0.28 0.29 0.30 0.33 0.42 0.54 0.57 0.57 0.66 0.66 0.60 0.68 0.68 0.63 0.61 0.59 0.57 0.52 0.54 0.65 0.73 0.79 0.76 0.72 0.63 0.56 0.53 0.49 0.47 0.44 0.39 0.34 0.32 0.35 0.36
0.10 0.09 0.10 0.10 0.12 0.15 0.16 0.18 0.20 0.22 0.25 0.29 0.30 0.40 0.61 0.73 0.68 0.63 0.61 0.60 0.58 0.52 0.50 0.51 0.45 0.43 0.44 0.44 0.54 0.62 0.70 0.72 0.72 0.64 0.55 0.50 0.43 0.42 0.45 0.43 0.37 0.33 0.32 0.31
0.07 0.07 0.07 0.10 0.16 0.23 0.28 0.29 0.26 0.26 0.31 0.34 0.32 0.40 0.57 0.71 0.80 0.72 0.59 0.53 0.49 0.44 0.44 0.42 0.38 0.41 0.42 0.46 0.54 0.63 0.70 0.70 0.70 0.65 0.57 0.50 0.44 0.43 0.46 0.45 0.40 0.35 0.32 0.30
0.09 0.10 0.12 0.16 0.23 0.33 0.39 0.40 0.42 0.44 0.50 0.56 0.56 0.60 0.67 0.67 0.70 0.69 0.61 0.51 0.45 0.45 0.45 0.44 0.41 0.40 0.43 0.51 0.56 0.62 0.69 0.70 0.67 0.61 0.50 0.46 0.42 0.42 0.46 0.44 0.38 0.36 0.32 0.27
0.14 0.15 0.20 0.23 0.29 0.38 0.44 0.50 0.58 0.63 0.72 0.83 0.88 0.83 0.83 0.81 0.75 0.66 0.56 0.47 0.42 0.42 0.44 0.43 0.40 0.38 0.42 0.50 0.57 0.63 0.63 0.63 0.58 0.53 0.51 0.49 0.46 0.46 0.48 0.44 0.40 0.36 0.30 0.27